Flag for U.S.A. Weather past 2 weeks in Wright, Florida, U.S.A.

Now
85 °F

Scattered clouds.


Feels Like: 93 °F
Forecast: 76 / 84 °F
Wind: 14 mph from Southeast

Location: Hurlburt Field

Current Time: May 26, 2015 at 11:58:41 AM

Latest Report: May 26, 2015 at 10:58 AM


Visibility: 10 mi

Pressure: 30.13 "Hg

Humidity: 71%

Dew point: 75 °F

Location of WrightLocation

Historic Weather in Wright — Graph

°F

Wright temperature yesterday

Maximum temperature yesterday: 85 °F (at 2:58 PM)
Minimum temperature yesterday: 76 °F (at 9:58 PM)
Average temperature yesterday: 81 °F

Past Weeks' High & Low Weather Summary

 TemperatureHumidityPressure
High88 °F (May 20, 1:58 PM)94% (May 19, 3:58 AM)30.25 "Hg (May 19, 3:58 AM)
Low64 °F (May 23, 5:58 AM)35% (May 22, 1:58 PM)29.93 "Hg (May 20, 3:58 PM)
Average78 °F75%30.11 "Hg
* Reported May 11 10:58 AM — May 26 10:03 AM, Wright, Weather by CustomWeather, © 2015

Note: Actual official high and low records may vary slightly from our data, if they occured in-between our weather recording intervals... More about our weather records

Advertising

Wright weather history for previous 24 hours

 ConditionsComfort  
Time TempWeatherWind HumidityBarometerVisibility
10:03 AM
Tue, May 26
84 °FPartly sunny.15 mph74%30.13 "Hg10 mi
8:58 AM82 °FPartly sunny.13 mph75%30.12 "Hg10 mi
7:58 AM81 °FPartly sunny.14 mph79%30.12 "Hg10 mi
7:03 AM79 °FPartly sunny.9 mph84%30.11 "Hg10 mi
5:58 AM78 °FPassing clouds.8 mph84%30.10 "Hg10 mi
4:58 AM79 °FPassing clouds.9 mph84%30.09 "Hg10 mi
12:58 AM79 °FPassing clouds.10 mph84%30.10 "Hg10 mi
9:58 PM
Mon, May 25
76 °FOvercast.5 mph85%30.11 "Hg10 mi
6:58 PM81 °FScattered clouds.8 mph82%30.11 "Hg10 mi
5:58 PM82 °FPassing clouds.12 mph77%30.12 "Hg10 mi
4:58 PM84 °FPassing clouds.14 mph72%30.11 "Hg10 mi
3:58 PM84 °FSunny.14 mph73%30.11 "Hg10 mi
2:58 PM85 °FPassing clouds.15 mph73%30.11 "Hg10 mi
2:03 PM84 °FBroken clouds.17 mph74%30.13 "Hg10 mi
1:58 PM85 °FPartly sunny.18 mph72%30.13 "Hg10 mi
12:58 PM85 °FBroken clouds.16 mph72%30.13 "Hg10 mi
12:03 PM84 °FPartly sunny.17 mph74%30.14 "Hg10 mi
11:58 AM83 °FBroken clouds.17 mph77%30.14 "Hg10 mi
Weather by CustomWeather, © 2015

See weather overviewHow to use our weather pages